Location: Lombard
(41.8800°N, 88.0080°W)
Time: 01:58:42
(UTC-05:00)

Gurwin Techsat 1B - Pass Details

Date: 16 May 2022
Orbit: 811 x 814 km, 98.8° (Epoch: 27 June)

Event Time Altitude Azimuth Distance (km) Brightness Sun altitude
Rises 03:01:15 0° 18° (NNE) 3,345 13.1 -21.7°
Reaches altitude 10° 03:03:40 10° 23° (NNE) 2,409 12.2 -21.5°
Maximum altitude 03:08:52 53° 100° (E) 992 9.1 -20.9°
Enters shadow 03:11:38 26° 166° (SSE) 1,534 9.7 -20.6°
